RH
47 48 49 48 44 45 48 49 51 55 61 67 70 67 63 63 61 58 61 58 50 52 54 45 38 37 38 38 31 27 30 33 34 38 39 39 41 40 37 37 37 35 34 33 34 31 28 26 24 23 23 22 21 21 21 21 20 19 18 17 16 15 15 16 16 16 15 15 13 12 11 11 11 12 11 11 9 9 10 10 8 7 5 5 5
43 47 48 44 41 43 46 47 50 54 60 69 77 76 67 64 64 61 61 61 60 58 52 43 37 36 38 36 31 28 29 31 33 37 39 38 40 41 37 35 36 36 35 34 35 35 32 29 27 26 25 24 23 21 21 21 20 19 18 17 16 15 14 15 15 15 15 14 13 11 11 11 11 12 12 12 11 10 10 10 10 8 6 5 5
35 39 44 42 43 44 43 45 52 58 63 68 75 79 74 71 70 68 66 63 66 65 55 46 39 34 36 35 30 29 28 30 34 37 39 38 40 41 37 33 32 34 36 35 35 35 35 33 29 29 27 26 24 22 21 20 20 19 19 18 16 15 15 14 14 14 15 13 12 10 10 10 10 11 12 12 12 11 11 10 10 9 7 6 5
34 33 42 45 46 47 47 50 57 62 66 67 70 74 76 78 76 75 74 68 69 73 64 53 46 39 37 36 31 28 28 28 32 36 38 38 38 41 41 36 31 31 34 35 36 35 35 35 32 30 29 28 25 24 22 21 20 19 19 18 17 16 15 14 14 14 14 13 11 10 10 10 10 11 12 12 12 12 11 11 11 9 8 6 5
36 35 45 50 51 54 55 57 62 64 65 68 70 71 71 74 76 77 79 76 72 74 74 63 53 48 43 39 36 30 27 27 29 34 37 37 38 41 42 41 35 31 32 35 37 37 37 36 35 33 31 29 27 25 24 23 21 20 20 19 17 16 16 14 14 13 14 13 10 9 9 10 10 11 12 12 12 12 12 12 11 11 9 8 5
42 44 53 57 59 62 62 62 63 63 64 66 69 69 67 69 72 73 76 79 78 75 78 76 66 59 51 42 39 34 28 26 27 31 34 35 37 38 41 42 40 35 34 34 35 37 39 38 36 35 33 31 29 27 25 24 22 21 21 20 18 17 15 14 14 13 13 13 11 9 9 9 10 11 12 12 12 12 12 12 12 11 10 9 7
51 52 57 59 61 66 68 66 63 62 63 65 67 68 67 68 70 70 70 73 79 82 83 82 77 74 64 50 43 39 33 28 26 27 28 31 34 35 38 40 41 40 40 37 35 35 37 39 39 38 37 34 31 28 26 24 22 22 22 21 21 18 17 15 14 13 13 13 12 10 9 9 9 11 12 13 13 12 12 12 12 12 11 9 8
55 55 57 58 60 65 67 67 66 64 63 63 65 67 66 66 68 71 70 69 75 82 83 81 80 82 81 72 58 45 39 35 30 26 26 28 31 32 35 36 36 38 41 41 39 36 35 37 38 39 39 37 33 31 29 26 24 24 23 22 22 21 19 17 15 15 14 14 13 11 10 9 10 10 12 13 14 13 12 12 12 13 12 10 9
50 52 54 58 59 60 62 65 66 65 62 61 62 63 63 63 65 67 70 71 74 78 79 79 79 80 84 85 76 58 45 41 35 30 29 28 28 29 31 33 34 34 36 40 42 40 36 35 36 37 37 36 34 32 31 29 27 26 26 25 24 23 21 20 19 18 17 15 13 12 11 11 10 11 12 13 14 15 14 13 12 12 12 11 10
37 42 48 55 60 62 63 62 60 58 57 59 62 62 61 61 63 63 65 69 74 75 76 77 77 79 82 83 84 74 59 50 41 34 33 33 31 27 29 33 34 34 35 37 40 40 38 37 37 36 36 36 35 32 31 31 30 29 28 27 26 26 24 22 20 19 19 18 17 15 14 13 12 12 12 13 14 15 15 13 12 12 12 12 11
28 31 36 44 53 59 61 59 55 52 54 57 61 62 60 61 63 64 65 67 71 74 76 78 78 81 84 82 83 82 74 67 56 45 39 38 33 28 31 34 33 35 37 37 38 39 39 40 39 37 35 35 34 34 32 31 31 31 29 28 27 27 26 24 23 21 20 19 20 20 18 17 15 14 14 13 14 15 16 15 13 12 12 11 11
23 25 27 28 34 40 42 45 44 44 49 50 53 58 57 59 63 63 64 66 69 71 73 78 80 82 84 82 82 83 81 79 72 60 51 45 39 34 36 35 31 34 37 38 39 39 40 40 40 39 38 36 34 33 32 31 30 30 30 29 28 28 28 27 25 24 22 20 23 25 24 23 20 17 15 14 14 15 16 16 15 13 12 11 11
18 21 24 20 21 29 27 26 29 31 37 39 43 51 53 55 59 60 62 65 69 71 71 75 79 81 83 83 83 83 82 83 77 68 61 55 47 42 39 33 30 34 37 37 39 41 41 40 39 39 40 39 36 34 32 32 31 30 30 29 29 28 28 28 27 26 25 22 23 26 26 27 26 22 18 15 14 14 15 16 16 14 12 11 11
20 22 26 22 21 27 25 21 24 24 28 33 39 46 50 50 52 57 62 64 68 71 74 79 82 83 85 87 87 85 83 83 78 73 70 64 56 49 43 36 34 36 36 36 38 40 42 41 39 38 38 39 39 38 36 33 31 31 31 31 31 30 29 29 28 27 26 23 21 22 22 24 27 27 23 17 13 12 13 15 16 15 14 12 11
28 27 28 27 25 27 27 25 24 24 26 30 34 40 44 43 44 52 60 63 65 70 77 81 85 86 86 89 90 87 86 84 80 80 78 71 65 60 52 43 39 38 39 38 36 37 38 38 38 38 36 38 40 41 42 40 36 33 32 33 33 32 31 30 30 28 26 25 20 18 17 19 23 26 26 22 16 11 11 13 15 16 14 13 12
30 29 28 27 27 27 27 27 26 25 26 28 30 33 36 36 39 46 53 60 65 70 77 78 81 87 87 88 90 88 88 86 84 88 86 77 72 70 62 51 44 42 41 38 33 32 34 36 37 38 37 38 39 40 42 45 44 38 33 33 32 32 31 30 30 29 27 26 23 19 17 16 19 23 26 25 20 14 10 9 11 14 14 13 12
28 30 29 27 27 26 26 27 27 27 27 28 28 30 31 32 38 45 45 51 58 63 70 71 75 84 87 87 89 90 90 87 85 89 89 84 78 73 66 56 47 42 40 36 32 31 32 35 36 36 37 39 40 37 35 39 42 41 38 34 31 30 30 29 28 28 27 26 24 23 21 17 16 19 23 25 23 19 14 11 9 11 13 13 13
23 26 25 25 27 26 27 27 26 26 25 27 27 28 28 28 33 38 36 38 43 48 55 60 66 76 83 87 89 91 91 88 86 89 91 90 83 73 69 64 52 43 41 39 38 37 36 36 37 37 38 39 38 35 33 35 37 38 39 38 34 30 29 29 29 29 29 28 27 26 26 24 21 19 21 25 26 23 20 17 14 11 10 12 13
18 18 17 18 20 20 22 23 22 20 18 19 20 21 22 22 23 25 27 29 32 34 37 44 52 60 69 77 82 84 86 85 85 87 88 91 91 83 81 79 67 57 53 45 41 42 41 40 39 39 39 38 36 34 33 34 35 35 36 36 33 30 29 30 30 31 32 34 33 32 33 33 31 27 25 26 28 27 24 23 20 15 12 10 12
15 15 15 14 15 15 16 17 17 16 15 13 13 13 13 14 15 15 18 21 25 27 28 32 37 41 46 53 60 67 75 81 84 86 85 88 93 92 92 91 81 74 69 57 49 45 41 38 36 37 39 40 38 34 32 32 33 33 32 32 32 31 31 32 33 35 37 38 40 39 40 41 40 38 34 31 30 29 28 27 25 22 18 14 12
14 14 14 15 14 14 14 14 15 16 17 15 13 13 12 12 13 12 12 13 15 18 21 24 27 28 30 33 37 43 53 61 67 75 82 86 90 90 91 92 89 85 80 74 69 60 52 47 42 42 41 39 39 38 38 39 39 38 36 35 36 34 34 36 36 37 39 41 43 43 43 44 45 44 42 40 38 36 35 34 32 29 26 22 18
13 13 13 14 14 14 15 15 15 15 16 15 15 15 14 14 14 13 13 12 12 12 13 15 16 17 20 26 29 30 33 37 38 45 56 66 74 79 81 84 86 88 88 86 85 79 73 68 64 61 56 51 50 49 49 49 46 45 46 43 42 41 41 42 43 42 41 42 43 45 45 44 45 45 45 45 45 45 45 46 45 44 42 40 38
14 13 13 13 13 14 14 14 15 15 15 15 16 16 16 16 15 15 15 14 14 14 12 12 12 11 13 18 23 23 24 27 28 30 33 40 49 57 63 67 71 76 80 81 81 80 79 78 75 75 72 69 67 66 66 66 61 56 55 54 52 51 49 48 47 46 45 44 44 46 46 47 48 49 51 54 55 55 55 56 56 56 56 57 57
15 15 14 13 14 14 13 14 14 14 15 15 15 15 15 15 16 15 16 16 15 16 15 15 14 14 13 13 15 17 17 20 23 25 27 30 34 37 43 49 53 57 63 65 66 67 68 70 73 75 73 70 69 69 72 76 75 71 69 68 65 62 61 60 55 51 48 48 49 51 53 55 56 57 58 59 60 60 59 59 60 59 59 60 60
18 16 16 16 15 14 14 14 14 14 14 14 14 14 14 14 15 14 15 15 14 15 15 15 15 15 16 15 17 19 18 16 16 17 21 25 29 32 33 35 39 41 45 48 51 54 55 57 64 68 68 67 66 67 68 72 75 75 74 73 70 68 71 73 70 66 61 58 58 60 61 62 62 64 64 64 63 62 62 62 62 62 62 61 61
22 20 18 17 16 16 16 15 15 14 14 14 13 13 14 14 14 14 14 14 13 13 13 13 14 13 14 15 16 18 18 16 16 18 22 25 29 32 31 31 32 31 32 32 36 41 44 47 54 59 62 64 62 61 61 62 66 68 67 69 71 73 78 81 81 80 78 73 71 69 68 67 66 68 70 69 68 68 68 68 68 68 67 67 66
28 25 22 20 19 18 18 17 17 16 15 15 14 14 14 14 14 13 13 14 14 13 12 12 12 12 13 12 14 17 15 15 17 19 23 24 24 27 29 29 28 26 26 26 25 27 30 34 39 44 49 53 55 56 57 56 55 57 58 60 63 67 71 76 79 82 84 84 82 79 77 74 71 72 74 75 75 75 75 76 76 77 76 73 72
33 29 26 24 23 22 21 21 20 19 18 17 16 16 15 14 14 14 14 14 14 13 13 13 12 12 12 11 15 17 13 13 17 18 18 17 17 22 26 27 26 23 22 22 22 23 23 25 27 29 32 36 40 45 49 50 50 51 52 51 51 51 54 56 58 61 65 68 71 73 74 74 71 69 71 74 78 81 82 82 82 83 82 80 78
35 32 30 29 27 26 25 24 23 22 21 20 19 18 18 16 15 15 15 15 14 14 14 14 12 12 12 11 14 16 13 13 15 15 14 14 17 21 23 25 26 24 21 21 21 21 22 23 23 23 24 26 29 32 34 36 37 38 39 40 39 38 39 39 38 36 36 40 46 54 60 65 67 65 65 70 77 82 82 81 84 87 86 84 80
36 34 33 32 31 30 30 28 27 25 23 22 21 20 20 19 18 17 16 16 16 16 15 16 15 14 14 13 14 15 13 13 14 14 13 14 18 23 25 26 26 25 24 22 21 20 21 22 22 22 24 25 26 26 26 27 27 24 23 24 27 28 26 24 25 26 27 27 31 38 45 52 58 61 64 69 74 76 74 70 75 83 87 84 76
37 37 37 36 35 34 33 32 31 29 27 25 24 23 22 21 21 19 18 17 18 18 18 17 17 17 16 15 15 16 14 14 16 15 14 15 17 21 24 27 27 27 27 25 23 22 21 22 22 23 24 23 21 19 18 19 21 20 17 16 20 24 23 20 20 21 24 27 28 30 33 38 44 49 54 58 60 60 60 57 58 65 70 71 70
40 39 39 39 39 38 37 36 35 33 31 29 27 25 24 23 23 23 21 19 20 22 20 19 18 18 19 18 18 18 14 15 18 16 16 17 16 16 20 24 26 27 27 27 26 24 23 23 24 23 23 22 21 19 17 17 20 20 17 16 17 17 17 20 22 20 19 23 26 27 28 29 33 37 41 45 48 50 53 53 53 53 54 56 58
45 43 42 41 41 41 40 40 38 37 36 34 32 30 29 27 26 25 22 20 21 23 21 21 20 19 19 20 22 20 16 16 17 17 20 19 17 18 21 24 25 26 26 26 25 25 24 24 25 24 24 23 21 20 20 21 21 18 15 14 14 13 13 18 24 24 21 20 23 27 28 27 28 30 33 35 39 44 49 52 54 53 53 52 49
50 48 46 44 43 43 42 42 41 40 39 38 36 35 34 32 30 28 26 23 23 22 21 22 23 21 19 19 21 20 18 17 17 18 20 18 18 20 21 22 23 24 25 25 24 24 24 24 24 24 24 23 23 23 21 21 19 14 11 10 12 14 17 20 23 25 25 23 21 23 25 26 27 29 31 32 33 37 42 46 49 49 48 46 44
54 52 50 47 46 45 44 44 43 42 41 41 41 39 38 37 36 34 32 29 26 24 22 22 23 23 21 20 21 21 19 18 18 19 19 19 19 18 17 19 21 21 22 22 22 23 23 22 23 23 23 24 24 24 22 21 19 14 10 9 12 16 20 22 23 23 24 25 21 19 20 22 24 26 29 32 34 35 36 37 38 38 36 37 37
56 55 55 52 51 50 49 49 48 46 45 44 43 42 42 42 43 42 40 36 33 29 27 25 25 24 23 22 22 23 21 20 19 19 20 19 17 16 16 18 19 21 22 22 22 23 24 23 22 22 22 22 22 22 21 21 21 19 15 12 13 16 19 21 22 23 24 24 21 17 17 18 20 22 24 27 30 33 36 37 37 37 34 33 35
60 58 57 56 56 57 57 56 54 52 51 50 49 47 47 47 46 46 45 42 39 35 32 30 28 27 26 25 25 24 23 22 20 18 17 15 14 14 15 17 19 22 23 22 22 23 24 24 23 22 21 21 21 20 20 20 20 20 19 18 16 16 17 16 18 21 23 22 20 17 16 15 16 18 19 21 23 26 30 34 38 41 41 38 36
64 61 64 67 67 65 66 66 66 62 57 55 54 53 52 51 50 48 47 47 45 41 37 35 33 31 30 29 28 28 26 25 23 19 15 13 12 12 13 14 17 18 18 17 19 21 22 22 23 22 21 21 21 20 20 20 20 19 20 20 19 18 16 13 14 17 20 22 21 19 16 15 16 15 15 17 18 20 23 27 32 38 44 45 42
62 59 64 70 70 68 67 69 72 72 68 65 62 60 58 55 54 53 49 46 44 41 38 37 36 37 35 34 32 31 30 29 26 22 17 14 13 12 13 14 16 19 19 19 20 21 20 20 21 22 21 21 21 20 19 20 20 20 19 20 19 19 19 19 18 19 20 21 22 20 17 18 18 16 15 15 16 17 19 22 27 32 39 45 46
64 60 62 64 63 62 61 61 65 69 70 70 68 68 67 64 61 61 59 54 49 45 41 36 34 34 35 36 35 34 34 33 30 25 21 18 15 14 14 14 16 19 23 25 26 25 22 21 21 21 21 20 21 21 20 20 20 20 20 21 21 20 20 21 22 22 22 22 23 22 21 21 22 20 18 16 16 16 17 19 23 27 32 38 44
71 69 66 64 62 60 58 57 58 61 63 64 64 64 65 64 62 62 62 59 57 55 52 46 42 38 34 32 31 32 31 31 30 28 24 21 19 17 15 15 15 17 21 25 27 26 25 25 23 22 21 21 21 20 21 21 21 21 22 22 22 20 19 20 21 21 22 21 21 21 22 22 22 23 22 21 20 19 19 19 19 22 27 31 37
70 70 67 66 66 64 60 58 57 58 58 58 57 57 54 51 50 50 49 48 48 48 49 49 50 51 46 40 36 32 31 29 27 27 26 23 21 20 19 18 17 17 18 21 24 25 26 25 24 22 22 21 21 22 21 22 22 22 23 23 22 21 21 21 21 20 21 21 21 21 21 21 22 23 23 24 25 25 23 22 19 18 22 27 31
65 65 67 70 71 69 70 71 70 69 69 68 65 59 49 42 40 39 38 37 37 39 41 43 47 54 56 52 45 38 36 34 29 27 27 25 23 23 22 22 22 20 19 18 19 21 24 26 26 24 24 23 23 23 23 22 23 23 24 25 25 24 23 22 21 21 21 23 24 23 23 22 22 23 22 23 25 26 26 27 22 18 19 24 27
64 62 65 71 72 70 73 74 70 67 69 71 67 56 45 40 38 36 34 33 33 35 40 43 46 52 55 52 45 37 36 36 32 28 28 28 25 25 25 24 24 24 22 20 18 18 21 25 27 27 26 25 24 25 25 24 25 26 26 26 26 25 24 23 23 22 22 23 24 24 24 24 24 23 23 23 24 25 27 28 25 21 20 23 24
56 55 58 62 63 62 61 58 54 52 52 53 51 46 41 39 37 35 33 32 31 34 39 43 46 49 48 45 40 35 34 35 32 27 28 29 29 28 28 27 27 27 26 24 22 20 20 21 23 25 26 27 27 27 27 27 26 27 27 27 27 27 26 26 24 24 24 25 26 25 24 25 25 25 24 24 24 25 25 27 26 23 23 23 23
46 46 48 49 50 51 49 47 46 46 45 44 42 40 39 36 34 34 32 31 33 38 42 44 44 44 44 42 42 40 37 36 34 30 29 30 31 32 32 32 33 33 33 32 31 28 24 23 23 23 24 25 26 26 28 29 28 28 28 28 28 28 28 27 27 27 26 27 28 28 27 26 26 27 26 24 24 25 25 26 26 24 23 24 24
39 40 42 43 44 44 43 41 41 41 40 39 38 36 34 32 32 34 35 38 43 44 43 43 40 39 40 41 44 46 43 39 37 32 29 30 31 33 34 33 33 33 34 37 38 38 36 33 31 30 30 29 28 28 29 30 29 29 29 29 30 30 30 29 29 27 27 27 27 28 28 27 27 26 26 25 24 24 25 25 26 25 23 24 24
37 37 38 39 39 39 39 38 38 38 36 35 34 33 32 32 35 39 42 46 48 44 41 43 43 42 44 47 49 50 46 43 41 37 33 32 34 35 35 33 32 33 34 36 37 36 36 36 35 35 35 35 34 31 30 30 30 30 30 30 31 31 30 31 30 29 28 27 26 26 28 27 28 27 26 25 24 24 25 26 26 25 24 24 25
36 36 38 38 38 38 37 37 37 37 36 36 35 35 36 39 44 47 47 45 39 33 33 39 41 41 44 47 47 45 42 41 42 41 38 37 37 38 37 34 34 36 37 38 37 36 35 35 34 33 32 32 32 31 31 31 32 32 32 31 31 31 30 31 31 30 30 28 27 28 29 28 27 27 27 27 25 24 25 26 26 25 23 24 24
36 37 38 38 38 38 37 38 38 37 36 35 35 38 43 48 51 49 44 36 30 27 30 33 35 35 37 38 38 38 38 38 37 36 35 34 35 36 36 35 35 38 39 39 39 38 38 37 37 36 34 34 33 31 31 31 31 32 33 32 32 33 32 31 31 30 29 28 27 28 28 27 27 28 27 26 27 26 25 27 27 24 21 21 23
36 38 38 38 38 38 38 38 36 34 35 36 38 43 48 50 50 47 41 36 35 38 41 42 44 45 46 47 46 44 43 43 40 36 33 32 33 35 37 36 36 36 38 40 40 39 38 38 38 38 39 38 36 35 34 33 31 31 31 31 32 34 34 32 32 30 28 27 26 26 27 26 27 28 27 27 27 26 27 30 29 24 21 20 21